STARLINK-31249, 58838

Orbit data source: Space-Track

STARLINK-31249, 58838 is a payload satellite owned by SpaceX/Seattle (US) in LEO that was launched on Wed, 24 Jan 2024 UTC via an FALCON 9 launch vehicle from the Air Force Western Test Range (AFWTR). Payload-class satellites include a variety of spacecraft equipped with specific instruments for various scientific and technological missions. These include communications satellites like Starlink; space stations such as the ISS; scientific satellites like the Hubble; Earth observation satellites from companies like Planet Labs, Umbra, and HawkEye 360; GPS; miniature CubeSats for education and research; and military/defense satellites.

Loading next visibility...
Identifier
58838, 2024-017N
Orbit
LEO
Country
Flag of USUS
Related business
Manufacturer
SpaceX/Seattle
Mission
Operational Commercial Communications
Bus & Motor
STARLINK V2M, Unknown motor
Mass
730 kg wet, ~700 kg dry
Launch date (UTC)
2024-01-24 (2 years ago)
Launch vehicle
FALCON 9
Launch site
Air Force Western Test Range (AFWTR)
Object type
Payload
Rocket body
Debris
Shape & HBR
Box + 2 Pan, 17.7 m
Radar Cross Section
33.884 m², Large (>1 m²)

Expand to show TLE details & history
Last TLE update: 2 days ago

TLE from 2 days ago
0 STARLINK-31249
1 58838U 24017N   26170.96142215 -.00002599  00000-0 -75672-4 0  9990
2 58838  53.1598  89.3371 0001616  92.9094 267.2092 15.30181812135718
Epoch: 2026-06-19T23:04Z
TLE epoch observation values (Epoch: 2026-06-19T23:04:26.873Z)
Latitude
-0.00001°
Longitude
-164.95777°
Altitude
476.223 km
Speed
7.629 km/s
True Right ascension
05h 57m 20s
True Declination
0° 00' 00"
Sunlit
Object was in daylight at epoch
Visualization orbit readout
Latitude
Unknown
Longitude
Unknown
Altitude
Unknown
Speed
Unknown
Apparent Right ascension
Unknown
Apparent Declination
Unknown
Sunlit
N/A
Visualization observer readout
Local Sidereal Time
21:28:27
Azimuth
Unknown
Elevation
Unknown
Doppler factor
Unknown
Orbital elements
Apogee altitude
476.633 km
Perigee altitude
474.418 km
Semi-major axis
6,853.663 km
Eccentricity
0.00016
Inclination
53.1598°
RAAN
89.3371°
Arg. of periapsis
92.9094°
True anomaly
267.1907°
Mean anomaly
267.2092°
Eccentric anomaly
267.19995°
Mean motion
3.82524 °/min
Orbital period
94.11 mins
BSTAR
-0.000075672
Loading maneuver chart data...
Computing Atmospheric mass density...
Loading historical data...
Loading historical data...
Loading historical data...
Loading historical data...
Loading historical data...
Loading historical data...
Loading historical data...

Documentation

Showing up to 5 results
|